Lexington, NE

7:29 PM CST on November 19, 2019 (GMT -0600)
Kelly

Weather History for KLXN - June, 2019

Change the Weather History Date:

Wednesday, June 5, 2019

  Actual Average Record
Temperature  
Mean Temperature 69 °F -  
Max Temperature 81 °F 76 °F 91 °F (2018)
Min Temperature 58 °F 51 °F 26 °F (1999)
Cooling Degree Days 4    
Growing Degree Days 19 (Base 50)    
Moisture  
Dew Point 59 °F    
Average Humidity 70    
Maximum Humidity 94    
Minimum Humidity 44    
Precipitation  
Precipitation 0.00 in - - ()
Sea Level Pressure  
Sea Level Pressure 29.91 in    
Wind  
Wind Speed 9 mph (North)    
Max Wind Speed 17 mph    
Max Gust Speed 23 mph    
Visibility 10 miles    
Events      
Averages and records for this station are not official NWS values.
T = Trace of Precipitation, MM = Missing Value Source: NWS Daily Summary

Daily Weather History Graph

Daily Weather History Graph

Search for Another Location

Airport or City:

Astronomy

Jun. 05, 2019 Rise Set
Actual Time 6:08 AM CDT 9:07 PM CDT
Civil Twilight 5:35 AM CDT 9:40 PM CDT
Nautical Twilight 4:53 AM CDT 10:21 PM CDT
Astronomical Twilight 4:05 AM CDT 11:10 PM CDT
Moon 8:15 AM CDT (6/5) 11:35 PM CDT (6/5)
Length of Visible Light 16h 04m
Length of Day
14h 58m
Waxing Crescent, 7% of the Moon is Illuminated
Jun 5
Waxing Crescent
Jun 10
First Quarter
Jun 17
Full
Jun 25
Last Quarter
Jul 2
New

Hourly Weather History & Observations

Time (CDT) Temp. Heat Index Dew Point Humidity Pressure Visibility Wind Dir Wind Speed Gust Speed Precip Events Conditions
12:15 AM 64.6 °F - 57.7 °F 78% 29.84 in 10.0 mi NW 10.4 mph 17.3 mph N/A   Scattered Clouds
12:35 AM 65.3 °F - 55.9 °F 72% 29.83 in 10.0 mi NNW 11.5 mph - N/A   Clear
12:55 AM 63.0 °F - 56.7 °F 80% 29.85 in 10.0 mi NNW 12.7 mph - N/A   Clear
1:15 AM 61.3 °F - 56.3 °F 83% 29.85 in 10.0 mi NW 10.4 mph - N/A   Clear
1:35 AM 60.8 °F - 56.3 °F 85% 29.86 in 7.0 mi NNW 5.8 mph - N/A   Clear
1:55 AM 60.8 °F - 56.3 °F 85% 29.88 in 10.0 mi WNW 8.1 mph - N/A   Clear
2:15 AM 61.7 °F - 57.7 °F 87% 29.88 in 10.0 mi West 10.4 mph - N/A   Clear
2:35 AM 62.4 °F - 57.9 °F 85% 29.88 in 10.0 mi WNW 9.2 mph - N/A   Clear
2:55 AM 62.8 °F - 57.9 °F 84% 29.88 in 10.0 mi WNW 9.2 mph - N/A   Clear
3:15 AM 62.8 °F - 57.9 °F 84% 29.88 in 10.0 mi WNW 9.2 mph - N/A   Scattered Clouds
3:35 AM 61.9 °F - 57.6 °F 86% 29.89 in 10.0 mi NW 6.9 mph - N/A   Scattered Clouds
3:55 AM 60.4 °F - 57.2 °F 89% 29.89 in 10.0 mi WNW 9.2 mph - N/A   Clear
4:15 AM 59.4 °F - 56.8 °F 91% 29.90 in 10.0 mi WNW 6.9 mph - N/A   Clear
4:35 AM 58.6 °F - 56.5 °F 93% 29.90 in 10.0 mi WNW 5.8 mph - N/A   Clear
4:55 AM 58.5 °F - 56.7 °F 94% 29.90 in 10.0 mi WNW 9.2 mph - N/A   Clear
5:15 AM 58.8 °F - 56.7 °F 93% 29.91 in 10.0 mi WNW 8.1 mph - N/A   Clear
5:35 AM 59.0 °F - 56.7 °F 92% 29.91 in 10.0 mi WNW 8.1 mph - N/A   Scattered Clouds
5:55 AM 58.5 °F - 56.7 °F 94% 29.91 in 10.0 mi WNW 6.9 mph - N/A   Scattered Clouds
6:15 AM 58.5 °F - 56.5 °F 93% 29.91 in 10.0 mi WNW 9.2 mph - N/A   Clear
6:35 AM 58.6 °F - 56.5 °F 93% 29.91 in 10.0 mi WNW 9.2 mph - N/A   Clear
6:55 AM 59.0 °F - 56.7 °F 92% 29.92 in 10.0 mi WNW 6.9 mph - N/A   Clear
7:15 AM 59.5 °F - 56.8 °F 91% 29.93 in 10.0 mi WNW 8.1 mph - N/A   Clear
7:35 AM 59.9 °F - 56.7 °F 89% 29.93 in 10.0 mi WNW 8.1 mph - N/A   Clear
7:55 AM 61.3 °F - 57.4 °F 87% 29.92 in 10.0 mi WNW 8.1 mph - N/A   Clear
8:15 AM 63.3 °F - 58.5 °F 84% 29.93 in 10.0 mi WNW 6.9 mph - N/A   Clear
8:35 AM 64.9 °F - 59.5 °F 83% 29.93 in 10.0 mi NNW 8.1 mph - N/A   Clear
8:55 AM 66.7 °F - 61.0 °F 82% 29.93 in 10.0 mi NW 8.1 mph - N/A   Scattered Clouds
9:15 AM 68.7 °F - 62.4 °F 80% 29.95 in 10.0 mi NW 6.9 mph - N/A   Mostly Cloudy
9:35 AM 70.7 °F - 63.7 °F 78% 29.95 in 10.0 mi NNW 5.8 mph - N/A   Mostly Cloudy
9:55 AM 72.9 °F - 63.1 °F 71% 29.94 in 10.0 mi North 5.8 mph - N/A   Clear
10:15 AM 73.9 °F - 64.0 °F 71% 29.94 in 10.0 mi Calm Calm - N/A   Clear
10:35 AM 76.5 °F - 64.8 °F 67% 29.93 in 10.0 mi NNE 5.8 mph - N/A   Clear
10:55 AM 77.2 °F - 65.5 °F 67% 29.93 in 10.0 mi NNE 8.1 mph - N/A   Scattered Clouds
11:15 AM 77.9 °F - 65.7 °F 66% 29.93 in 10.0 mi North 6.9 mph - N/A   Scattered Clouds
11:35 AM 78.1 °F - 62.4 °F 58% 29.93 in 10.0 mi North 8.1 mph - N/A   Clear
11:55 AM 78.3 °F - 60.4 °F 54% 29.93 in 10.0 mi North 15.0 mph 21.9 mph N/A   Clear
12:15 PM 79.0 °F - 59.7 °F 52% 29.93 in 10.0 mi North 12.7 mph 19.6 mph N/A   Clear
12:35 PM 79.2 °F - 59.5 °F 51% 29.93 in 10.0 mi North 17.3 mph - N/A   Clear
12:55 PM 79.7 °F - 59.4 °F 50% 29.93 in 10.0 mi North 17.3 mph 21.9 mph N/A   Clear
1:15 PM 79.7 °F - 60.3 °F 51% 29.93 in 10.0 mi NNE 16.1 mph 20.7 mph N/A   Clear
1:35 PM 80.2 °F 81.0 °F 60.1 °F 50% 29.92 in 10.0 mi North 12.7 mph 23.0 mph N/A   Clear
1:55 PM 80.4 °F 81.0 °F 58.8 °F 48% 29.92 in 10.0 mi North 12.7 mph 19.6 mph N/A   Clear
2:15 PM 80.4 °F 80.7 °F 57.4 °F 45% 29.92 in 10.0 mi North 12.7 mph 21.9 mph N/A   Clear
2:35 PM 80.4 °F 81.0 °F 59.0 °F 48% 29.92 in 10.0 mi North 12.7 mph 17.3 mph N/A   Clear
2:55 PM 80.6 °F 80.9 °F 58.3 °F 46% 29.92 in 10.0 mi North 11.5 mph 17.3 mph N/A   Clear
3:15 PM 80.6 °F 81.2 °F 59.7 °F 49% 29.92 in 10.0 mi North 8.1 mph 11.5 mph N/A   Scattered Clouds
3:35 PM 80.2 °F 80.8 °F 59.2 °F 48% 29.92 in 10.0 mi NNE 13.8 mph - N/A   Scattered Clouds
3:55 PM 79.3 °F - 59.0 °F 50% 29.92 in 10.0 mi North 12.7 mph 17.3 mph N/A   Scattered Clouds
4:15 PM 80.1 °F 80.5 °F 57.7 °F 46% 29.92 in 10.0 mi North 11.5 mph 17.3 mph N/A   Scattered Clouds
4:35 PM 79.5 °F - 58.6 °F 49% 29.91 in 10.0 mi NE 13.8 mph 17.3 mph N/A   Scattered Clouds
4:55 PM 80.6 °F 81.4 °F 60.3 °F 50% 29.91 in 10.0 mi NE 8.1 mph - N/A   Scattered Clouds
5:15 PM 79.9 °F - 56.7 °F 45% 29.91 in 10.0 mi NE 9.2 mph - N/A   Clear
5:35 PM 79.5 °F - 56.3 °F 45% 29.91 in 10.0 mi NNE 11.5 mph 16.1 mph N/A   Clear
5:55 PM 79.2 °F - 57.9 °F 48% 29.90 in 10.0 mi NNE 6.9 mph - N/A   Clear
6:15 PM 78.8 °F - 56.8 °F 47% 29.90 in 10.0 mi NNE 8.1 mph - N/A   Clear
6:35 PM 78.8 °F - 56.8 °F 47% 29.90 in 10.0 mi North 6.9 mph - N/A   Clear
6:55 PM 78.6 °F - 55.2 °F 44% 29.90 in 10.0 mi North 6.9 mph - N/A   Clear
7:15 PM 77.9 °F - 55.6 °F 46% 29.90 in 10.0 mi NE 6.9 mph - N/A   Clear
7:35 PM 76.5 °F - 59.0 °F 55% 29.90 in 10.0 mi NE 8.1 mph - N/A   Clear
7:55 PM 75.6 °F - 57.7 °F 54% 29.90 in 10.0 mi NE 8.1 mph - N/A   Clear
8:15 PM 74.5 °F - 58.1 °F 57% 29.90 in 10.0 mi NNE 6.9 mph - N/A   Clear
8:35 PM 72.9 °F - 59.4 °F 62% 29.90 in 10.0 mi NE 6.9 mph - N/A   Clear
8:55 PM 70.9 °F - 60.4 °F 69% 29.90 in 10.0 mi North 5.8 mph - N/A   Clear
9:15 PM 69.8 °F - 60.8 °F 73% 29.90 in 10.0 mi NNE 5.8 mph - N/A   Clear
9:35 PM 68.9 °F - 60.3 °F 74% 29.91 in 10.0 mi NNE 5.8 mph - N/A   Clear
9:55 PM 67.8 °F - 60.1 °F 76% 29.92 in 10.0 mi NNE 6.9 mph - N/A   Clear
10:15 PM 66.6 °F - 60.3 °F 80% 29.92 in 10.0 mi NNE 5.8 mph - N/A   Clear
10:35 PM 65.7 °F - 59.9 °F 82% 29.93 in 10.0 mi NNE 6.9 mph - N/A   Clear
10:55 PM 64.9 °F - 59.9 °F 84% 29.94 in 10.0 mi NE 6.9 mph - N/A   Clear
11:15 PM 63.7 °F - 59.2 °F 85% 29.94 in 10.0 mi ENE 5.8 mph - N/A   Clear
11:35 PM 64.6 °F - 59.0 °F 82% 29.94 in 10.0 mi NE 8.1 mph - N/A   Clear
11:55 PM 63.9 °F - 59.0 °F 84% 29.94 in 10.0 mi ENE 5.8 mph - N/A   Clear